Temperature
20 18 18 18 19 20 20 20 20 20 21 20 19 19 19 19 19 19 19 19 20 20 20 19 19 18 18 17 16 16 15 15 15 14 14 14 14 13 13 13 13 13 13 12
18 18 19 20 20 20 20 20 20 20 21 20 19 19 19 18 18 19 19 19 20 20 19 19 18 18 17 17 16 16 15 15 14 14 14 13 13 13 13 13 13 12 12 12
19 20 20 20 20 20 20 20 20 20 20 20 20 19 19 19 19 19 19 20 20 20 19 19 18 18 17 17 16 16 15 15 14 14 14 13 13 13 13 13 13 12 12 12
19 19 20 20 20 20 20 20 20 20 19 18 20 18 19 18 18 18 18 19 19 19 19 19 18 18 17 17 16 16 15 15 14 14 14 13 13 13 13 12 12 12 12 12
19 19 20 20 20 20 20 20 20 20 19 18 18 18 17 18 19 18 17 18 19 20 19 19 19 18 17 17 16 16 15 15 14 14 14 13 13 13 13 12 12 12 12 12
19 20 20 20 21 20 20 19 18 16 17 18 19 18 18 17 18 19 18 19 20 20 19 19 18 18 17 17 16 15 15 15 14 14 14 13 13 13 13 13 12 12 12 12
20 20 20 20 20 20 19 18 18 18 17 18 18 18 17 18 18 18 18 19 20 20 19 19 18 18 17 17 16 16 15 15 14 14 14 13 13 13 13 12 12 12 12 12
19 19 20 20 20 20 19 18 18 19 18 17 17 17 18 18 19 19 20 20 20 20 20 19 19 18 17 17 16 16 15 15 14 14 14 13 13 13 13 12 12 12 12 12
18 19 20 21 21 19 19 18 18 17 17 17 17 18 18 20 19 19 19 19 20 20 20 19 19 18 17 17 16 16 15 15 14 14 14 13 13 13 13 12 12 12 12 12
18 19 20 20 20 19 19 16 15 16 17 18 18 18 18 19 19 18 18 19 20 20 20 19 19 18 18 17 16 16 15 15 15 14 14 13 13 13 13 13 12 12 12 12
18 19 19 20 21 20 19 18 15 14 15 16 17 18 18 18 19 18 18 20 21 21 20 20 19 18 18 17 17 16 16 15 15 14 14 14 13 13 13 13 13 12 12 12
17 17 18 19 20 20 20 18 16 18 17 15 16 17 18 17 17 18 19 21 21 21 20 20 19 18 18 17 17 16 16 15 15 14 14 14 13 13 13 13 13 13 12 12
18 17 18 19 19 20 20 18 17 15 14 13 15 18 18 18 18 19 20 21 21 21 20 20 19 19 18 17 17 16 16 15 15 15 14 14 14 13 13 13 13 13 12 12
18 17 18 19 19 20 20 19 17 16 15 15 15 17 18 19 18 19 20 21 21 21 20 20 19 19 18 18 17 17 16 16 15 15 14 14 14 14 13 13 13 13 12 12
18 18 18 18 19 20 20 20 18 18 17 17 17 17 18 18 18 20 21 21 21 20 20 20 19 19 18 18 17 17 16 16 15 15 15 14 14 14 13 13 13 13 12 12
16 18 19 19 20 19 20 20 19 18 18 17 18 18 18 19 19 19 20 20 20 21 20 20 19 19 18 18 17 17 16 16 15 15 15 14 14 14 14 13 13 13 13 12
16 17 18 18 18 20 19 20 20 19 19 18 18 19 19 18 18 20 21 21 21 21 21 20 19 19 18 18 17 17 16 16 16 15 15 15 14 14 14 13 13 13 13 13
16 16 15 16 19 20 19 19 20 19 19 18 18 18 18 19 20 21 22 22 22 21 21 20 19 19 18 18 17 17 16 16 16 15 15 15 14 14 14 13 13 13 13 13
15 15 14 15 17 18 18 19 19 19 19 19 18 18 18 19 19 20 22 22 22 21 21 20 19 19 18 18 17 17 16 16 16 15 15 15 14 14 14 14 13 13 13 13
13 14 14 14 17 18 19 20 20 20 20 20 19 18 18 18 17 18 22 22 21 21 20 20 19 18 18 17 17 17 16 16 16 15 15 15 14 14 14 14 13 13 13 13
15 14 14 14 16 16 18 19 20 20 19 21 20 20 19 18 20 22 22 21 21 20 20 19 19 18 18 17 17 16 16 16 15 15 15 14 14 14 14 14 13 13 13 13
15 15 14 13 15 17 19 18 18 19 21 21 21 21 21 21 21 22 21 21 20 20 19 19 18 18 17 17 17 16 16 16 15 15 15 14 14 14 14 13 13 13 13 13
14 14 14 14 16 18 19 19 21 21 21 22 22 22 22 22 21 21 21 20 20 20 19 18 18 18 17 17 16 16 16 15 15 15 15 14 14 14 14 13 13 13 13 13
14 14 13 14 15 17 19 20 21 21 21 22 22 22 22 22 22 21 21 20 20 19 19 18 18 17 17 16 16 16 16 15 15 15 15 14 14 14 13 13 13 13 12 12
14 14 14 14 15 17 21 21 21 21 21 22 22 22 22 22 22 21 21 20 19 19 18 18 17 17 17 16 16 16 16 15 15 15 14 14 14 13 13 13 12 12 12 12
12 14 14 15 17 16 19 21 20 20 21 21 21 21 22 22 22 21 20 20 19 19 18 17 17 17 16 16 16 16 15 15 15 14 14 14 13 13 12 12 12 11 11 11
Wind_Speed
4 5 6 9 8 6 6 5 6 6 3 6 8 10 10 4 5 7 7 7 6 6 3 4 5 5 4 3 2 2 1 2 1 1 2 2 3 3 3 3 4 5 5 4
4 4 7 5 5 4 4 3 6 5 1 4 5 8 7 3 5 7 8 8 7 5 4 4 5 5 4 3 3 2 2 2 2 1 2 2 3 3 3 4 4 5 5 4
6 5 4 6 5 5 4 5 5 4 3 2 2 7 5 3 1 2 4 5 6 8 8 7 6 5 4 4 4 4 3 3 2 2 1 2 2 3 3 4 4 5 5 5
4 3 4 5 5 7 5 6 5 3 0 3 1 4 7 4 3 1 3 5 6 6 7 7 7 6 6 6 4 4 3 3 2 1 1 1 2 3 3 3 4 6 5 5
4 4 5 6 7 8 6 1 2 1 2 2 1 2 8 3 3 5 5 5 6 6 7 8 8 7 6 5 4 3 2 3 2 1 1 1 2 3 3 4 5 5 5 5
2 3 4 5 2 5 4 6 6 5 4 2 2 3 6 4 6 5 4 6 6 6 6 6 5 4 4 3 3 2 2 3 3 2 2 2 3 4 5 5 5 5 4 4
3 3 2 3 3 3 5 5 4 4 3 5 3 3 8 6 7 6 7 8 7 7 6 6 6 6 6 5 5 3 3 4 3 3 3 3 3 3 4 5 5 5 4 4
1 4 3 3 5 6 5 8 6 4 4 5 3 4 7 6 4 3 4 5 5 7 7 8 8 7 6 6 5 4 4 4 3 3 4 3 3 2 3 4 4 4 4 5
4 4 3 2 3 8 6 3 5 6 3 1 5 7 8 1 2 1 2 3 6 7 7 8 7 7 6 6 6 5 5 4 4 3 3 3 3 3 3 4 3 4 4 5
5 2 4 1 5 4 5 8 6 5 3 2 6 5 5 6 6 4 5 6 7 6 6 7 6 6 6 6 5 4 4 4 4 3 3 2 3 3 4 4 4 4 5 5
3 2 4 2 3 6 5 5 6 5 5 5 2 7 7 8 8 9 9 8 7 7 7 7 7 6 5 4 4 4 4 3 3 3 3 3 3 3 3 3 4 4 4 5
3 4 1 4 3 3 4 7 8 5 4 5 4 7 7 8 8 8 8 7 6 6 6 6 6 5 4 4 4 4 3 4 4 2 2 2 3 3 3 4 5 4 5 5
4 4 2 6 5 2 2 4 5 6 6 6 5 7 5 3 4 6 7 7 5 5 5 5 5 5 5 5 4 4 4 4 3 2 1 2 2 3 4 4 5 4 4 5
4 3 5 6 6 3 3 4 5 6 5 6 8 9 9 7 7 7 7 7 6 5 6 6 5 6 5 5 5 4 4 3 2 1 1 2 3 3 4 4 4 4 4 4
4 3 5 6 6 3 4 5 7 7 8 9 9 9 12 10 9 8 7 6 6 6 6 7 7 6 5 5 5 5 4 3 2 2 2 3 3 3 3 4 4 4 4 4
2 2 1 3 3 3 4 6 7 7 6 8 7 10 11 7 4 5 7 8 8 8 8 7 7 7 7 7 6 5 5 4 3 3 3 3 3 3 3 3 4 4 4 4
2 3 2 4 5 3 5 7 7 6 7 9 10 11 6 5 7 8 9 10 10 9 8 8 8 8 8 7 7 6 5 3 3 3 3 3 2 3 3 3 3 4 4 3
5 4 3 1 2 5 9 4 5 6 8 9 9 8 7 8 6 4 6 9 10 9 8 8 7 7 6 5 5 5 4 3 3 3 3 3 3 3 3 3 4 4 3 3
6 7 4 3 2 7 10 5 4 5 7 7 9 8 4 2 3 3 5 7 9 8 8 7 7 6 6 6 5 5 4 3 2 2 3 3 3 3 3 3 4 3 3 3
4 4 5 4 3 5 9 6 2 3 6 6 6 6 5 7 3 6 5 6 6 6 6 6 6 6 6 5 6 7 4 3 3 3 3 3 2 2 3 4 4 3 2 3
2 3 4 5 5 8 9 5 3 3 7 5 5 6 9 9 7 4 5 5 6 6 7 7 8 6 5 6 7 6 4 3 4 2 1 1 1 2 2 3 2 3 3 3
6 5 5 5 4 8 4 2 5 7 5 4 4 6 8 7 3 4 6 7 8 8 7 8 8 6 4 6 7 6 4 3 2 2 1 1 2 2 1 2 3 3 3 3
6 8 6 8 8 6 3 6 7 4 5 5 4 5 7 6 6 6 6 7 8 8 8 7 8 7 4 4 6 6 3 2 3 3 1 1 2 2 2 2 2 3 2 2
4 3 3 5 9 8 8 7 6 5 6 7 6 5 7 7 8 8 7 8 8 7 7 7 8 8 5 4 4 4 3 4 5 3 1 1 2 2 3 2 2 2 2 2
6 3 3 6 9 9 8 6 5 5 6 6 5 5 7 8 8 9 9 9 9 7 7 7 8 8 6 5 4 2 3 5 5 3 2 2 2 2 2 2 2 1 1 1
6 7 6 8 8 6 10 9 6 6 8 7 6 5 5 8 10 9 9 9 9 9 8 8 8 7 6 6 4 3 3 6 6 4 2 1 1 1 2 2 3 4 3 6
Wind_Direction
138 123 184 198 192 185 180 205 250 259 221 192 234 260 277 261 214 213 211 208 209 214 203 160 155 152 146 149 164 191 222 275 303 322 319 319 314 312 316 313 318 321 319 314
89 207 210 176 170 166 177 222 264 288 241 201 261 278 285 255 222 212 207 206 202 187 166 167 163 163 169 181 195 215 236 264 275 262 260 257 275 289 287 301 319 325 325 320
170 214 170 154 169 181 213 208 235 254 342 17 332 314 314 334 335 202 195 191 187 187 186 185 182 185 186 202 209 215 236 264 284 294 314 332 340 330 333 330 325 322 324 320
191 226 163 170 196 177 237 227 210 217 34 300 15 291 295 319 327 257 204 186 192 195 189 190 191 195 204 214 213 220 240 266 284 306 330 330 330 311 293 297 301 312 318 319
212 184 172 198 213 182 209 120 139 146 159 324 344 202 289 329 281 257 227 208 205 200 193 196 201 205 211 210 210 222 246 270 286 303 296 308 303 283 294 304 313 320 321 319
228 218 197 206 208 167 139 76 58 51 75 308 261 186 281 251 234 245 219 210 207 199 196 202 207 204 214 214 217 221 242 268 284 294 295 281 293 304 318 323 325 325 320 317
341 303 243 159 112 87 105 95 32 360 8 261 294 210 254 260 248 228 215 213 210 197 190 197 203 206 214 218 221 220 233 264 282 290 291 285 285 294 302 307 313 319 323 317
170 280 250 189 178 164 158 141 157 198 233 283 330 250 260 268 283 231 205 201 198 199 201 207 211 210 216 222 220 217 231 255 275 283 289 290 288 287 290 296 302 306 302 301
179 255 292 219 180 134 131 151 155 132 155 303 300 297 307 292 15 96 168 185 209 213 211 213 214 214 217 221 220 215 226 247 264 273 286 297 300 301 304 309 310 306 307 312
162 248 304 299 87 45 136 140 105 115 138 284 307 295 261 261 247 236 226 226 231 225 217 217 215 216 221 223 222 216 221 233 248 267 280 294 300 307 311 318 323 320 320 325
136 147 320 28 168 169 116 100 104 106 141 149 275 281 231 228 226 221 228 228 225 219 217 213 213 213 217 215 212 216 226 236 251 263 277 299 306 318 325 325 321 320 323 330
135 124 275 277 276 199 172 165 149 148 189 162 175 268 264 241 242 224 229 231 224 216 212 207 201 193 199 208 214 220 229 237 246 253 269 286 306 327 332 327 324 325 330 333
135 110 50 354 347 358 154 148 141 123 117 149 173 262 291 282 244 226 226 231 222 210 201 190 184 192 204 210 214 219 226 235 246 241 263 297 317 325 320 317 322 330 335 339
123 124 166 198 228 234 230 172 152 133 150 194 219 248 286 273 250 240 227 221 211 204 194 187 194 205 210 212 213 216 229 229 223 213 249 286 298 303 305 312 321 331 338 342
120 191 224 238 247 238 235 218 182 188 191 195 230 231 251 248 234 231 220 203 192 197 198 198 200 204 205 210 215 215 228 226 208 209 244 269 284 298 311 321 324 330 341 342
114 199 236 294 288 253 256 253 211 215 208 218 242 258 251 248 219 215 209 195 197 203 205 203 199 196 202 207 209 210 223 219 199 213 243 269 293 304 310 314 323 330 333 336
161 155 142 276 303 357 279 247 219 221 212 195 220 244 247 219 219 216 208 199 203 205 202 197 196 199 203 204 199 203 213 202 198 223 248 267 279 291 298 311 327 325 322 331
162 142 147 226 15 254 250 258 219 229 248 220 229 246 228 223 223 221 199 195 205 202 197 196 193 192 194 190 186 185 177 180 199 228 254 268 271 279 294 311 311 309 309 313
166 146 134 142 218 281 296 283 197 206 270 234 224 244 229 161 88 311 219 196 201 197 190 188 183 175 168 172 168 151 154 162 184 232 258 267 263 273 291 300 298 298 304 310
88 111 129 143 176 242 256 269 218 144 284 263 209 214 172 131 150 248 218 179 179 170 163 159 150 139 147 159 145 142 154 162 211 239 254 266 260 264 278 285 291 293 291 293
92 99 153 175 212 257 257 277 125 154 252 274 205 194 174 185 202 209 157 152 153 149 148 143 137 139 153 149 140 144 155 198 229 231 248 315 303 276 278 295 302 305 310 319
192 175 187 156 189 255 271 145 183 227 266 263 224 198 192 206 191 161 157 153 147 142 139 139 135 135 135 143 144 150 181 218 186 141 111 348 338 334 348 343 337 339 343 342
205 195 190 191 216 243 252 232 255 254 262 256 238 226 190 185 189 177 168 162 157 151 147 143 139 132 125 140 149 159 195 169 137 119 96 12 10 7 9 15 357 359 4 360
269 178 176 250 269 271 273 263 265 247 250 263 247 225 188 193 189 180 171 167 162 157 153 146 138 138 143 149 149 164 157 139 127 121 100 57 42 16 14 23 25 24 4 354
244 193 223 264 281 305 298 275 279 287 280 274 262 227 205 189 190 184 178 176 171 162 155 150 149 150 153 146 143 145 140 133 126 119 100 71 52 31 15 17 18 11 11 48
210 198 210 245 252 246 273 287 290 287 283 269 252 244 222 196 192 184 182 178 169 162 154 150 150 150 149 141 136 130 131 135 131 123 108 90 70 46 33 19 14 18 29 34
Height
1499 1506 1511 1509 1509 1510 1513 1517 1518 1513 1507 1510 1511 1509 1503 1502 1503 1503 1504 1506 1508 1510 1512 1513 1515 1517 1518 1519 1519 1519 1518 1517 1515 1513 1511 1509 1507 1505 1503 1501 1499 1497 1495 1493
1504 1507 1502 1502 1505 1508 1512 1516 1516 1510 1506 1508 1510 1508 1502 1501 1500 1500 1502 1503 1506 1508 1510 1512 1514 1516 1517 1518 1518 1518 1517 1516 1514 1512 1510 1508 1506 1504 1502 1499 1497 1495 1493 1491
1503 1502 1498 1502 1506 1510 1511 1515 1514 1513 1509 1508 1510 1511 1504 1500 1499 1500 1501 1502 1504 1506 1508 1510 1512 1514 1516 1516 1517 1517 1516 1515 1513 1511 1509 1507 1505 1503 1500 1498 1495 1493 1491 1489
1500 1498 1498 1502 1505 1506 1513 1505 1507 1509 1516 1521 1516 1528 1509 1504 1501 1500 1500 1501 1503 1505 1508 1509 1511 1513 1514 1515 1516 1516 1515 1514 1512 1511 1508 1506 1504 1501 1499 1496 1494 1492 1490 1488
1500 1497 1498 1502 1500 1501 1505 1502 1506 1509 1515 1522 1520 1526 1518 1506 1503 1500 1499 1500 1502 1504 1506 1508 1510 1512 1513 1514 1515 1515 1514 1513 1512 1510 1508 1506 1503 1501 1498 1495 1493 1491 1488 1486
1496 1494 1494 1495 1495 1497 1500 1506 1511 1518 1523 1532 1522 1527 1522 1511 1502 1498 1498 1499 1501 1503 1506 1508 1509 1511 1512 1513 1514 1513 1513 1512 1511 1509 1507 1505 1503 1500 1497 1495 1492 1489 1487 1485
1499 1495 1492 1492 1497 1499 1502 1516 1531 1532 1539 1534 1522 1524 1519 1501 1497 1496 1496 1497 1499 1502 1504 1506 1508 1509 1511 1512 1512 1512 1512 1511 1510 1508 1506 1504 1502 1499 1497 1494 1492 1489 1486 1483
1507 1506 1493 1492 1494 1500 1504 1511 1530 1538 1541 1534 1524 1525 1510 1496 1494 1493 1494 1496 1498 1501 1503 1505 1507 1508 1509 1510 1511 1511 1511 1510 1509 1507 1505 1503 1501 1499 1497 1494 1491 1489 1486 1483
1507 1505 1492 1490 1490 1495 1505 1510 1512 1527 1530 1535 1529 1518 1503 1494 1493 1493 1494 1495 1497 1499 1501 1503 1505 1507 1508 1509 1509 1510 1509 1509 1507 1506 1504 1503 1501 1498 1496 1494 1491 1488 1486 1483
1499 1504 1494 1490 1491 1494 1498 1507 1519 1528 1537 1540 1532 1523 1516 1499 1495 1493 1494 1494 1495 1497 1499 1501 1503 1505 1506 1507 1508 1508 1508 1507 1506 1505 1503 1502 1500 1498 1496 1494 1491 1488 1486 1483
1496 1504 1501 1495 1495 1498 1503 1508 1517 1528 1530 1541 1540 1527 1499 1494 1491 1491 1491 1491 1493 1495 1497 1499 1501 1503 1505 1506 1506 1507 1507 1506 1505 1504 1503 1501 1500 1498 1496 1493 1491 1488 1485 1482
1496 1505 1508 1499 1492 1490 1493 1500 1511 1521 1527 1533 1536 1526 1489 1489 1487 1487 1488 1489 1491 1493 1495 1497 1499 1501 1503 1504 1505 1505 1505 1505 1504 1503 1502 1500 1499 1497 1495 1493 1491 1488 1485 1483
1496 1504 1513 1510 1505 1495 1494 1498 1503 1512 1525 1535 1535 1518 1487 1486 1485 1485 1486 1487 1489 1491 1493 1495 1497 1499 1501 1502 1503 1504 1504 1504 1503 1502 1501 1500 1498 1496 1495 1493 1490 1488 1485 1483
1493 1502 1509 1513 1506 1498 1496 1497 1502 1508 1521 1527 1522 1509 1491 1486 1484 1483 1484 1485 1487 1489 1491 1493 1495 1497 1499 1500 1501 1502 1502 1502 1502 1501 1500 1499 1497 1496 1494 1492 1490 1488 1486 1483
1492 1500 1499 1497 1494 1493 1493 1493 1498 1501 1504 1511 1504 1501 1489 1482 1480 1479 1481 1482 1484 1486 1488 1490 1492 1494 1496 1498 1499 1500 1501 1501 1500 1500 1499 1498 1497 1495 1493 1492 1490 1488 1486 1484
1493 1497 1496 1495 1491 1492 1492 1489 1491 1494 1494 1497 1495 1492 1477 1476 1476 1477 1478 1479 1481 1483 1486 1488 1490 1492 1494 1496 1497 1498 1499 1499 1499 1498 1498 1497 1496 1494 1493 1491 1490 1488 1486 1484
1496 1498 1502 1504 1496 1492 1497 1486 1485 1486 1484 1486 1489 1481 1472 1474 1473 1473 1474 1476 1478 1480 1483 1485 1488 1490 1492 1494 1495 1496 1497 1497 1497 1497 1496 1496 1495 1493 1492 1491 1489 1488 1486 1484
1494 1499 1505 1506 1501 1506 1492 1477 1477 1479 1477 1476 1474 1471 1469 1469 1469 1470 1472 1474 1476 1478 1481 1483 1485 1488 1490 1492 1493 1494 1495 1495 1495 1495 1495 1494 1493 1492 1491 1490 1488 1487 1485 1484
1489 1496 1505 1510 1508 1503 1487 1475 1475 1478 1475 1468 1468 1466 1466 1467 1469 1469 1470 1472 1474 1476 1479 1481 1483 1486 1488 1490 1491 1492 1493 1494 1494 1494 1493 1493 1492 1491 1490 1489 1487 1486 1484 1483
1490 1493 1503 1510 1506 1506 1487 1471 1469 1474 1477 1463 1463 1463 1465 1467 1474 1470 1468 1470 1472 1474 1477 1479 1481 1484 1486 1488 1489 1490 1491 1492 1492 1492 1492 1491 1491 1490 1489 1487 1486 1485 1483 1482
1494 1498 1502 1506 1505 1496 1475 1469 1470 1483 1478 1462 1460 1460 1462 1463 1464 1464 1466 1468 1470 1473 1475 1478 1480 1482 1484 1486 1487 1488 1489 1490 1491 1491 1490 1490 1489 1488 1487 1486 1485 1483 1482 1481
1492 1497 1500 1505 1504 1495 1469 1469 1473 1471 1462 1460 1459 1458 1459 1460 1462 1463 1464 1466 1469 1471 1473 1476 1478 1480 1482 1484 1486 1487 1488 1488 1489 1489 1489 1488 1488 1487 1486 1485 1483 1482 1480 1479
1487 1485 1487 1488 1483 1470 1467 1466 1465 1463 1461 1459 1458 1457 1458 1459 1460 1461 1463 1465 1467 1469 1472 1474 1476 1479 1480 1482 1484 1485 1486 1487 1487 1487 1487 1487 1486 1485 1484 1483 1482 1480 1479 1477
1479 1477 1480 1480 1470 1465 1463 1462 1461 1460 1459 1457 1457 1456 1456 1457 1458 1460 1461 1463 1465 1468 1470 1472 1474 1476 1478 1480 1482 1483 1484 1485 1485 1486 1485 1485 1484 1483 1482 1481 1480 1479 1477 1476
1476 1476 1477 1475 1467 1462 1458 1458 1458 1457 1456 1455 1454 1454 1454 1455 1456 1457 1459 1461 1463 1466 1468 1470 1472 1474 1476 1478 1480 1481 1482 1483 1483 1483 1483 1483 1482 1482 1481 1480 1479 1477 1476 1475
1470 1471 1473 1470 1463 1462 1458 1456 1456 1454 1453 1452 1451 1451 1451 1452 1453 1454 1456 1459 1461 1463 1465 1468 1470 1472 1474 1476 1477 1479 1480 1481 1481 1481 1481 1481 1481 1480 1479 1479 1478 1476 1475 1474